{"data":{"norad_id":69049,"epoch":"2026-09-19T21:33:17.772768Z","epoch_age_seconds":66242,"freshness":"FRESH","line1":"1 69049U 26102A   26262.89812237  .00015375  00000+0  18770-3 0  9993","line2":"2 69049  41.4679 106.9413 0002586 292.0471  68.0093 15.60115363308841","mean_motion":15.60115363,"eccentricity":0.0002586,"inclination_deg":41.4679,"raan_deg":106.9413,"arg_perigee_deg":292.0471,"mean_anomaly_deg":68.0093,"bstar":0.0001877,"rev_number":30884,"period_min":92.30086659944,"perigee_km":385.57399668084,"apogee_km":389.0730928746,"semimajor_km":6765.4605447777,"source":"CELESTRAK","updated_at":"2026-09-20T09:00:28.696777Z"}}